{"data":{"norad_id":57728,"intl_designator":"2023-130B","name":"YAOGAN-39 01B","alt_names":[],"object_type":"PAYLOAD","status":"ACTIVE","operator":null,"country":"PRC","launch_date":"2023-08-31","launch_site_code":"XICLF","launch_vehicle":null,"mission":null,"orbit_class":"UNKNOWN","rcs_meters":null,"size_class":null,"mass_kg":null,"dimensions":null,"purposes":[],"wikipedia_slug":null,"has_3d_model":false,"image_url":null,"decayed_at":null,"tle_current":{"epoch":"2026-09-23T00:13:49.929024Z","epoch_age_seconds":89278,"freshness":"FRESH","line1":"1 57728U 23130B   26266.00960566  .00003498  00000+0  17424-3 0  9996","line2":"2 57728  34.9936 262.8740 0010211 238.3418 121.6299 15.17031668170341","mean_motion":15.17031668,"eccentricity":0.0010211,"inclination_deg":34.9936,"raan_deg":262.874,"arg_perigee_deg":238.3418,"mean_anomaly_deg":121.6299,"bstar":0.00017424,"rev_number":17034,"period_min":94.922210944907,"perigee_km":507.77907868868,"apogee_km":521.85587031651,"semimajor_km":6892.9544745026,"source":"CELESTRAK","updated_at":"2026-09-23T09:00:18.329251Z"}}}